AirNav   ProFlight Series 2 Aviation Headset
 
 918 users online  

PA40 Benton Airport
Benton, Pennsylvania, USA

GOING TO BENTON?


FAA INFORMATION EFFECTIVE 18 JUNE 2020

Location

FAA Identifier: PA40
Lat/Long: 41-12-00.3010N 076-23-13.7900W
41-12.005017N 076-23.229833W
41.2000836,-76.3871639
(estimated)
Elevation: 780 ft. / 238 m (estimated)
Variation: 11W (1985)
From city: 4 miles W of BENTON, PA
Time zone: UTC -4 (UTC -5 during Standard Time)
Zip code: 17814

Airport Operations

Airport use: Private use. Permission required prior to landing
Activation date: 04/1947
Control tower: no
ARTCC: NEW YORK CENTER
FSS: WILLIAMSPORT FLIGHT SERVICE STATION
Attendance: UNATNDD
Wind indicator: yes
Segmented circle: no

Airport Communications

WX AWOS-3 at 79PN (17 nm SW): 118.075 (570-271-8192)

Nearby radio navigation aids

VOR radial/distance  VOR name  Freq  Var
MIPr059/16.4MILTON VORTAC109.2009W
FQMr124/19.4WILLIAMSPORT VOR/DME114.4009W
LVZr272/31.8WILKES-BARRE VORTAC111.6010W
SEGr051/33.3SELINSGROVE VOR/DME110.4008W
RAVr025/40.0RAVINE VORTAC114.6011W

Airport Services

Airframe service: NONE
Powerplant service: NONE

Runway Information

Runway 3/21

Dimensions: 2200 x 150 ft. / 671 x 46 m
Surface: turf
RUNWAY 3  RUNWAY 21
Traffic pattern: leftleft
Obstructions: 35 ft. trees, 26 ft. from runway16 ft. road, 77 ft. from runway

Airport Ownership and Management from official FAA records

Ownership: Publicly-owned
Owner: BENTON AIRPORT ASSOCIATION, LLC
4350 RED ROCK ROAD, ATTN: BOB BREWINGTON
BENTON, PA 17814
Phone 570-204-1977
ROBERT BREWINGTON, PRESIDENT
Manager: MONTY HITTLE
4350 RED ROCK ROAD, APT B
BENTON, PA 17814
Phone (570) 317-7073

Airport Operational Statistics

Aircraft based on the field: 8
Single engine airplanes: 8
    

Additional Remarks

FOR CD CTC NEW YORK ARTCC AT 631-468-1425.

Instrument Procedures

There are no published instrument procedures at PA40.

Some nearby airports with instrument procedures:

N13 - Bloomsburg Municipal Airport (12 nm S)
8N8 - Danville Airport (19 nm SW)
KHZL - Hazleton Regional Airport (22 nm SE)
N79 - Northumberland County Airport (23 nm S)
KIPT - Williamsport Regional Airport (24 nm W)
 
Loc | Ops | Rwys | IFR | FBO | Links
Com | Nav | Svcs | Stats | Notes
Area around PA40 (Benton Airport)
 
Road maps at: MapQuest Bing Google
 
Aerial photo
WARNING: Photo may not be current or correct
Aerial photo of PA40 (Benton Airport)
Photo taken 10-Apr-2005

Do you have a better or more recent aerial photo of Benton Airport that you would like to share? If so, please send us your photo.

 
Sectional chart

 
Airport distance calculator
Flying to Benton Airport? Find the distance to fly.

From to PA40

Sunrise and sunset
Times for 05-Jul-2020
 Local
(UTC-4)
 Zulu
(UTC)
Morning civil twilight05:0709:07
Sunrise05:4009:40
Sunset20:4000:40
Evening civil twilight21:1401:14

Current date and time
Zulu (UTC)  06-Jul-2020 00:26:22
Local (UTC-4)  05-Jul-2020 20:26:22
 
METAR
KHZL 
22nm SE 
060016Z AUTO 00000KT 10SM CLR 22/15 A3005 RMK AO2
KIPT 
24nm W 
052354Z 00000KT 10SM CLR 28/18 A2993 RMK AO2 SLP129 T02830183 10339 20283 53002 $
KAVP 
31nm E 
052354Z 00000KT 10SM CLR 30/15 A2996 RMK AO2 SLP134 T03000150 10344 20300 53004
KSEG 
32nm SW 
052353Z AUTO 00000KT 10SM CLR 28/22 A2994 RMK AO2 SLP135 T02830217 10333 20283 53005
K22N 
37nm SE 
060015Z AUTO 00000KT 10SM CLR 25/21 A2996 RMK AO2
TAF
KIPT 
24nm W 
052112Z 0521/0618 25005KT P6SM SKC FM060100 00000KT P6SM SKC FM061500 VRB03KT P6SM FEW250
NOTAMs
Click for the latest NOTAMs
NOTAMs are issued by the DoD/FAA and will open in a separate window not controlled by AirNav.

 

 
 

Would you like to see your business listed on this page?

 If your business provides an interesting product or service to pilots, flight crews, aircraft, or users of the Benton Airport, you should consider listing it here.  To start the listing process, click on the button below
 
Add a business
 

Other Pages about Benton Airport

Update a link
 
Copyright © AirNav, LLC. All rights reserved. Privacy Policy  Contact